Weather History for Renton, WA

Change the Weather History Date:

Thursday, February 28, 2013

  Actual Average Record
Temperature  
Mean Temperature 48 °F -  
Max Temperature 53 °F 49 °F 59 °F (2005)
Min Temperature 42 °F 35 °F 32 °F (1997)
Degree Days  
Heating Degree Days 18    
Moisture  
Dew Point 46 °F    
Average Humidity 95    
Maximum Humidity 100    
Minimum Humidity 88    
Precipitation  
Precipitation 0.27 in - - ()
Sea Level Pressure  
Sea Level Pressure 30.26 in    
Wind  
Wind Speed 3 mph (SE)    
Max Wind Speed 8 mph    
Max Gust Speed -    
Visibility 8 miles    
Events Rain    
Averages and records for this station are not official NWS values.
T = Trace of Precipitation, MM = Missing Value Source: NWS Daily Summary

Daily Weather History Graph

Daily Weather History Graph

Search for Another Location

Airport:

Trip Planner

Search our weather history database for the weather conditions in past years. The results will help you decide how hot, cold, wet, or windy it might be!

Date:

Astronomy

Feb. 28, 2013 Rise Set
Actual Time 6:50 AM PST 5:52 PM PST
Civil Twilight 6:19 AM PST 6:23 PM PST
Nautical Twilight 5:44 AM PST 6:59 PM PST
Astronomical Twilight 5:08 AM PST 7:35 PM PST
Moon 9:45 PM PST (2/28) 7:46 AM PST (2/28)
Length of Visible Light 12h 04m
Length of Day
11h 02m
Waning Gibbous, 90% of the Moon is Illuminated
Feb 28
Waning Gibbous
Mar 4
Last Quarter
Mar 11
New
Mar 19
First Quarter
Mar 27
Full

Hourly Weather History & Observations

Time (PST) Temp. Windchill Dew Point Humidity Pressure Visibility Wind Dir Wind Speed Gust Speed Precip Events Conditions
12:53 AM 44.1 °F - 43.0 °F 96% 30.27 in 10.0 mi Calm Calm - 0.00 in Rain Light Rain
1:53 AM 44.1 °F - 43.0 °F 96% 30.27 in 7.0 mi Calm Calm - 0.03 in Rain Light Rain
2:53 AM 44.1 °F - 42.1 °F 93% 30.26 in 5.0 mi Calm Calm - 0.05 in Rain Light Rain
3:53 AM 44.1 °F - 42.1 °F 93% 30.24 in 9.0 mi Calm Calm - 0.03 in Rain Light Rain
4:53 AM 44.1 °F - 43.0 °F 96% 30.24 in 9.0 mi Calm Calm - 0.02 in Rain Light Rain
5:53 AM 42.8 °F - 42.8 °F 100% 30.21 in 10.0 mi Calm Calm - N/A Rain Light Rain
6:53 AM 43.0 °F 40.3 °F 43.0 °F 100% 30.22 in 8.0 mi NNW 4.6 mph - 0.00 in Rain Light Rain
7:53 AM 43.0 °F - 43.0 °F 100% 30.21 in 5.0 mi Calm Calm - 0.01 in Rain Light Rain
8:53 AM 45.0 °F - 43.0 °F 93% 30.22 in 7.0 mi Calm Calm - 0.01 in Rain Light Rain
9:33 AM 44.6 °F 43.1 °F 44.6 °F 100% 30.21 in 5.0 mi SE 3.5 mph - 0.03 in Rain Light Rain
9:53 AM 46.0 °F - 45.0 °F 96% 30.22 in 6.0 mi Calm Calm - 0.04 in Rain Light Rain
10:53 AM 46.9 °F - 46.0 °F 97% 30.24 in 5.0 mi SSE 3.5 mph - 0.01 in Rain Light Rain
11:53 AM 46.9 °F - 45.0 °F 93% 30.25 in 4.0 mi ESE 4.6 mph - 0.00 in   Overcast
12:21 PM 46.4 °F 42.9 °F 46.4 °F 100% 30.23 in 10.0 mi East 6.9 mph - N/A   Overcast
12:38 PM 46.4 °F 43.5 °F 46.4 °F 100% 30.23 in 7.0 mi ESE 5.8 mph - N/A   Overcast
12:50 PM 48.2 °F - 46.4 °F 93% 30.23 in 10.0 mi ESE 4.6 mph - N/A   Overcast
12:53 PM 48.0 °F - 46.0 °F 93% 30.25 in 10.0 mi ESE 5.8 mph - N/A   Overcast
1:53 PM 48.9 °F - 46.9 °F 93% 30.25 in 10.0 mi SSE 6.9 mph - N/A   Overcast
2:53 PM 48.9 °F - 46.9 °F 93% 30.28 in 6.0 mi SE 3.5 mph - 0.02 in Rain Light Rain
3:53 PM 50.0 °F - 48.0 °F 93% 30.28 in 10.0 mi ESE 5.8 mph - 0.01 in Rain Light Rain
4:10 PM 50.0 °F - 48.2 °F 94% 30.27 in 8.0 mi SE 5.8 mph - 0.01 in Rain Light Rain
4:53 PM 50.0 °F - 48.9 °F 96% 30.29 in 10.0 mi ESE 4.6 mph - 0.01 in   Overcast
5:53 PM 50.0 °F - 48.0 °F 93% 30.28 in 10.0 mi SE 5.8 mph - 0.00 in   Overcast
6:53 PM 53.1 °F - 50.0 °F 89% 30.30 in 10.0 mi SE 8.1 mph - N/A   Overcast
7:53 PM 53.1 °F - 50.0 °F 89% 30.32 in 7.0 mi SSE 6.9 mph - N/A   Overcast
8:25 PM 53.6 °F - 50.0 °F 88% 30.29 in 10.0 mi SE 6.9 mph - 0.01 in   Overcast
8:53 PM 53.1 °F - 51.1 °F 93% 30.32 in 10.0 mi SE 8.1 mph - 0.01 in   Overcast
9:53 PM 51.1 °F - 50.0 °F 96% 30.34 in 10.0 mi SE 4.6 mph - N/A   Overcast
10:53 PM 52.0 °F - 50.0 °F 93% 30.34 in 10.0 mi ESE 4.6 mph - 0.00 in   Overcast
11:53 PM 51.1 °F - 50.0 °F 96% 30.33 in 8.0 mi East 4.6 mph - 0.02 in Rain Light Rain